Regional Weather Roundup
Issued by NWS

Home | Current Version | Previous Version | Graphics & Text | Print | Product List | Glossary On
Versions: 1 2 3 4 5 6 7 8 9 10 11 12 13 14 15 16 17 18 19 20 21 22 23 24 25 26 27 28 29 30 31 32 33 34 35 36 37 38 39 40 41 42 43 44 45 46 47 48 49 50
531
ASUS44 KLIX 271605
RWRLA
LOUISIANA WEATHER ROUNDUP
NATIONAL WEATHER SERVICE NEW ORLEANS LA
1000 AM CST THU NOV 27 2014

NOTE: "FAIR" INDICATES FEW OR NO CLOUDS BELOW 12,000 FEET WITH NO
      SIGNIFICANT WEATHER AND/OR OBSTRUCTIONS TO VISIBILITY.
      SKY/WX - SKY CONDITION AND SIGNIFICANT WEATHER.
      TMP - AIR TEMPERATURE.    DP   - DEWPOINT TEMPERATURE.
      RH  - RELATIVE HUMIDITY.  PRES - PRESSURE.
      HX  - HEAT INDEX.         WCI  - WIND CHILL INDEX.

*  THESE STATIONS ARE NOT NWS OR FAA STATIONS AND ARE NOT UNDER
   NWS QUALITY CONTROL.

LAZ040-048-061>063-065-066-069-271700-
SOUTHEAST LOUISIANA

CITY           SKY/WX    TMP DP  RH WIND       PRES   REMARKS
N.O. AUDUBON   NOT AVBL
N.O. INTL ARPT SUNNY     55  34  45 N18       30.45S
N.O. LAKEFRONT SUNNY     56  36  47 N17       30.46R
N.O. DOWNTOWN* FAIR      54  34  47 N9G18     30.45S
SLIDELL        SUNNY     54  32  43 NE14G22   30.44S
BATON ROUGE    SUNNY     53  31  42 N9        30.47S
BOOTHVILLE     SUNNY     56  37  49 N13G22    30.44R
BELLE CHASSE   SUNNY     57  31  37 N9G17     30.44R
BOGALUSA*        N/A     54  31  42 N13       30.47S
NEW ROADS*     FAIR      53  31  42 N9        30.48S
GONZALES*      FAIR      54  33  45 N7        30.46S
HAMMOND*       SUNNY     54  30  40 N12       30.47F
HOUMA*         SUNNY     57  37  47 N14       30.45S
PORT FOURCHON* SUNNY     57  43  58 N16       30.47R

$$

LAZ041-044-053-054-271700-
SOUTHWEST LOUISIANA

CITY           SKY/WX    TMP DP  RH WIND       PRES   REMARKS
LAKE CHARLES   SUNNY     56  29  35 NE17      30.48S
LAFAYETTE      SUNNY     54  32  43 NE17G24   30.48R
PATTERSON      SUNNY     57  36  44 NE13        N/A
SALT POINT       N/A     61  35  37 N8G20     30.44S
NEW IBERIA     SUNNY     56  34  43 N13       30.48R
CHENAULT AIRPK SUNNY     54  30  40 NE13      30.49S

$$

LAZ027-028-271700-
CENTRAL LOUISIANA

CITY           SKY/WX    TMP DP  RH WIND       PRES   REMARKS
FORT POLK      SUNNY     52  27  38 N13G18    30.49R
ALEXANDRIA INT SUNNY     53  29  39 N14       30.49S
ALEXANDRIA     SUNNY     52  29  41 N10G20    30.51R

$$

LAZ001-002-271700-
NORTHWEST LOUISIANA

CITY           SKY/WX    TMP DP  RH WIND       PRES   REMARKS
SHREVEPORT     SUNNY     50  28  42 N13       30.53S
BARKSDALE AFB  SUNNY     48  28  44 N10       30.54S
DTN SHREVEPORT SUNNY     48  29  47 N8        30.55R

$$

LAZ014-016-271700-
NORTHEAST LOUISIANA

CITY           SKY/WX    TMP DP  RH WIND       PRES   REMARKS
MONROE         SUNNY     47  30  51 N10       30.56R
TALLULAH       SUNNY     47  30  51 N13       30.53R

$$




USA.gov is the U.S. government's official web portal to all federal, state and local government web resources and services.